Theta_e
300 299 298 298 298 298 297 296 296 296 296 295 295 295 295 295 295 294 295 295 295 295 295 296 296 296 296 296 296 296 296 296 296 296 296 296 296 296 296 295 295 295 295 295 294 294 294 294 294 294 293 293 293 293 294 294 294 294 294 294 295 295 295 296 296 296 296 297 297 297 297 297 297 297 297 297 297 298 298 298 298 298 298 298 298 298
298 298 297 297 297 297 296 296 295 295 295 294 294 294 294 295 294 294 294 294 295 295 295 295 295 295 295 295 295 295 294 295 295 295 295 295 295 295 295 295 295 295 295 294 294 293 294 293 293 293 293 293 293 293 293 293 293 293 293 293 293 293 294 294 294 295 295 295 296 296 296 296 296 296 296 296 297 297 297 297 297 297 297 298 298 298
297 297 296 296 296 296 296 295 294 294 294 293 293 294 294 294 294 294 294 294 294 294 294 294 294 294 294 294 294 293 293 293 294 294 294 294 294 294 294 295 294 294 294 294 293 293 293 293 293 293 292 292 292 292 292 292 292 292 292 292 292 292 292 292 293 293 293 294 294 295 295 295 295 295 296 296 296 296 296 296 296 297 297 297 297 297
296 296 296 296 296 296 295 295 294 294 294 294 294 294 294 293 294 294 294 294 294 294 294 294 294 294 294 294 293 292 291 292 292 293 293 294 294 294 294 294 294 294 294 293 293 293 293 292 292 292 292 292 292 291 291 291 291 291 291 291 291 291 291 291 291 292 292 292 293 293 294 294 294 295 295 295 295 296 296 296 296 296 296 296 296 297
296 296 296 295 295 295 295 294 294 294 294 294 294 294 294 294 294 294 295 295 294 294 294 294 294 294 294 293 292 290 290 290 291 291 292 293 293 293 293 293 293 293 293 293 292 292 292 292 292 292 291 291 291 291 291 290 290 290 290 290 290 290 290 290 290 290 290 291 291 292 293 293 294 294 294 294 295 295 295 295 295 295 296 296 296 296
295 295 295 295 295 295 294 294 294 294 294 294 293 293 293 293 293 294 294 294 294 294 294 294 293 293 293 292 291 290 290 290 290 290 290 291 291 292 292 292 292 292 292 292 292 291 291 291 291 291 291 290 290 290 290 290 289 289 289 289 289 288 288 288 288 288 288 288 289 290 291 292 292 293 293 293 293 294 294 294 295 295 295 295 295 295
295 295 295 295 295 294 294 294 294 294 293 293 293 293 293 293 293 293 293 293 293 293 293 293 293 292 291 290 290 289 289 289 289 289 289 289 290 290 291 291 291 291 291 291 290 290 290 290 290 290 290 289 289 289 289 289 289 289 289 288 288 288 287 287 286 286 286 286 287 288 289 290 291 292 292 292 292 293 293 294 294 294 294 295 295 295
294 295 295 295 294 294 294 294 294 293 293 293 293 293 293 293 293 293 292 292 292 292 292 292 292 291 290 290 289 289 289 289 289 289 289 289 289 289 289 289 289 289 289 289 289 289 289 289 289 289 289 289 289 289 289 289 289 289 288 288 288 287 287 286 286 286 286 286 286 286 287 288 289 290 291 291 292 292 292 292 293 293 293 294 294 294
295 295 295 295 294 294 293 294 293 293 293 293 293 294 294 293 293 292 292 292 291 291 291 291 291 290 290 289 289 289 289 288 288 288 289 288 288 288 288 288 288 288 288 288 288 289 289 289 289 289 289 289 289 289 289 289 289 288 288 287 287 286 286 286 286 286 286 286 286 287 287 287 288 289 289 290 291 291 291 291 292 292 292 293 293 293
296 295 295 294 294 294 294 293 293 293 293 293 293 293 293 293 293 293 292 292 291 291 291 290 290 290 289 289 289 288 288 288 288 288 288 288 288 288 288 287 287 287 287 287 288 288 288 288 288 288 288 289 289 289 289 288 288 288 287 287 286 286 285 285 285 285 285 286 286 286 287 287 287 288 288 289 290 290 291 291 291 291 292 292 292 293
295 295 294 294 294 294 294 293 293 293 293 293 292 292 292 293 293 293 292 292 291 291 290 290 289 289 289 288 288 288 288 288 288 287 287 287 287 287 287 287 287 287 287 287 287 287 287 287 287 287 287 287 287 288 288 288 287 287 286 286 286 285 285 285 285 285 286 286 286 286 286 286 286 287 288 288 289 289 290 290 290 291 291 291 292 292
294 294 294 294 294 294 293 293 293 293 293 292 292 291 291 291 292 292 292 291 291 290 290 289 289 289 288 288 288 288 288 288 288 288 287 287 287 287 287 287 287 287 287 287 287 287 286 286 286 286 285 285 286 286 286 286 286 286 286 285 285 285 285 285 286 286 287 287 287 287 287 286 286 286 287 288 288 289 289 290 290 290 290 291 291 291
294 294 294 294 294 293 293 293 292 292 292 292 291 291 290 290 290 291 290 290 290 289 289 289 288 288 288 288 288 288 288 288 288 288 287 287 287 286 286 287 286 286 286 286 286 286 286 286 286 285 285 284 284 284 285 285 285 285 285 285 285 285 285 285 286 287 287 288 288 288 288 288 288 288 288 288 288 288 289 289 289 290 290 290 290 291
294 294 294 293 293 293 292 292 292 291 291 291 291 290 290 289 289 289 289 289 289 288 288 288 288 288 288 288 288 288 288 288 288 288 287 287 286 286 286 286 286 286 286 286 286 286 285 285 285 285 284 284 283 284 284 284 284 284 284 285 285 285 285 285 286 287 287 288 288 288 288 289 289 289 289 289 289 289 289 289 289 289 289 289 290 290
294 294 293 293 293 292 292 291 291 290 290 290 290 290 289 289 289 288 288 288 288 288 288 288 288 287 287 287 287 287 287 287 287 287 287 286 286 285 284 284 284 284 284 285 285 285 285 285 284 284 283 283 283 284 284 285 285 285 285 285 285 285 285 285 286 287 287 287 288 288 288 288 288 289 289 289 289 289 289 289 289 289 289 289 289 289
294 293 293 292 292 292 291 291 290 290 290 289 289 289 289 289 288 288 288 288 287 287 287 287 287 287 287 287 287 287 287 287 286 286 286 286 285 285 284 284 284 284 284 284 284 285 285 284 284 284 283 283 284 284 285 285 286 286 286 286 285 285 285 285 286 286 287 287 287 287 288 288 288 288 288 288 288 288 289 289 289 289 289 289 289 289
293 293 293 292 291 291 291 290 290 289 289 289 289 288 288 288 288 288 288 287 287 287 287 286 286 286 286 287 287 286 286 286 286 285 285 285 285 285 284 284 284 284 284 284 284 284 284 284 284 283 283 284 284 285 286 286 286 286 286 286 286 286 286 286 286 286 287 287 287 287 287 288 288 288 288 288 288 288 288 289 289 289 290 290 290 290
292 292 292 292 291 290 290 289 289 289 289 288 288 288 288 288 287 287 287 287 286 286 286 286 286 286 286 286 286 286 286 285 285 285 285 285 285 285 284 284 284 284 284 284 284 284 284 284 284 284 284 284 284 285 286 286 286 286 286 287 286 286 286 286 286 286 286 287 287 287 287 288 288 288 288 288 288 288 288 288 289 289 289 290 290 290
291 291 291 291 290 290 289 289 289 288 288 288 288 287 287 287 287 287 286 286 286 286 286 285 285 285 285 285 285 285 285 285 285 285 285 285 285 284 284 284 284 284 284 284 284 284 284 284 284 284 284 284 284 285 285 286 286 286 287 286 286 286 285 285 285 286 286 286 287 287 287 287 288 288 288 288 288 288 288 288 288 288 289 289 289 290
291 290 290 290 290 289 289 289 288 288 288 288 287 287 287 287 286 286 286 286 286 286 285 285 285 285 285 285 285 285 285 285 285 285 285 284 284 284 284 284 284 284 284 284 284 284 284 284 283 283 284 283 284 284 285 286 286 286 286 286 286 285 285 285 285 285 286 286 286 286 287 287 287 287 288 288 288 288 288 288 288 288 288 289 289 289
290 289 289 289 289 289 289 288 288 288 288 287 287 287 287 286 286 286 286 286 286 286 285 285 285 285 285 285 285 285 285 285 285 284 284 284 284 285 284 284 284 284 284 284 284 284 284 283 283 284 284 283 283 284 285 285 286 286 286 285 285 284 284 285 285 286 286 286 286 287 287 287 288 288 288 288 288 288 288 288 288 288 288 288 289 289
289 289 289 288 288 288 288 288 288 288 287 287 287 287 287 286 286 286 286 286 286 285 285 285 285 285 285 284 284 284 284 284 285 285 284 284 285 285 285 284 284 283 283 283 283 283 283 283 283 283 284 283 283 284 285 285 286 286 285 285 284 284 284 285 286 286 286 287 287 287 287 287 287 287 288 288 288 288 288 288 288 288 288 288 288 289
288 288 288 288 288 288 288 288 288 287 287 287 287 287 287 286 286 286 286 286 285 285 285 284 284 284 284 284 284 285 285 285 285 285 285 285 285 285 285 284 284 284 283 283 283 283 283 283 283 283 283 283 283 284 284 285 285 285 285 284 284 284 285 285 285 286 286 286 286 286 287 287 287 287 287 288 288 288 288 288 289 289 289 288 288 289
288 288 288 288 288 288 288 288 287 287 287 287 287 287 286 286 286 285 285 285 285 284 284 284 284 284 285 285 285 285 284 284 284 284 284 285 285 285 284 284 284 283 283 283 283 283 283 283 283 283 283 283 284 284 284 285 285 284 284 284 284 284 285 285 285 285 286 286 286 286 286 286 286 287 287 287 287 288 288 288 289 289 289 289 289 289
288 288 287 287 287 287 287 287 287 287 287 287 287 287 286 286 285 285 284 284 284 284 284 284 284 284 285 285 285 285 284 284 284 284 284 285 285 285 284 284 284 283 283 283 283 283 283 283 283 283 284 284 284 284 285 284 284 284 284 284 284 284 284 285 285 285 285 285 285 286 286 286 286 286 286 287 287 287 287 288 288 288 289 289 289 289
287 287 287 287 287 287 287 287 287 287 287 286 286 286 285 285 284 284 284 284 284 284 284 284 284 284 284 284 284 284 284 284 284 284 284 284 285 284 284 284 283 283 283 283 283 283 283 283 283 284 284 284 284 284 284 284 284 284 285 285 285 285 285 285 285 285 285 286 286 286 286 286 286 286 286 286 286 287 287 287 287 288 288 288 289 289
287 287 287 287 287 287 287 287 286 286 286 286 286 285 285 285 284 284 284 284 284 284 284 283 283 284 284 284 284 284 284 284 284 284 284 284 284 284 284 284 283 283 283 283 283 283 283 283 284 284 284 284 284 284 284 284 284 285 285 285 285 285 285 285 286 286 286 286 286 286 286 286 286 286 286 286 286 286 286 287 287 287 287 288 288 288
287 287 286 286 286 286 286 286 286 286 286 286 286 285 285 285 285 285 285 284 284 284 284 283 283 283 283 283 284 283 283 283 283 283 283 284 284 284 284 283 283 283 283 283 283 283 283 284 284 284 285 285 284 284 284 284 284 284 284 284 284 284 285 285 285 285 285 285 285 286 285 285 285 286 286 286 286 286 286 286 287 287 287 287 288 288
286 286 286 286 286 286 286 286 286 286 286 286 286 286 286 286 285 285 285 285 284 284 284 283 283 283 283 283 283 283 283 283 283 283 283 283 283 284 283 283 283 283 283 283 283 283 283 284 284 285 284 284 284 284 284 284 284 284 283 283 283 284 284 284 284 284 285 285 285 285 285 285 285 285 285 285 286 286 286 286 286 286 286 287 287 287
285 285 285 285 285 285 285 285 285 285 285 285 286 286 286 286 286 285 285 285 284 284 284 283 283 283 283 282 282 282 282 283 283 283 283 283 284 284 283 283 283 283 283 283 283 283 283 284 284 284 284 284 284 284 284 284 283 283 283 283 283 283 283 283 284 284 284 284 284 284 284 284 284 284 285 285 285 285 286 286 286 286 286 286 286 286
285 285 285 285 285 285 285 285 285 284 284 284 285 285 285 285 285 285 284 284 284 283 283 283 283 283 282 282 281 280 281 283 283 283 283 283 283 284 283 283 283 283 283 283 283 282 281 283 284 284 284 284 284 284 283 283 283 283 283 283 283 283 283 283 283 283 284 284 284 283 283 283 283 284 284 284 284 285 285 285 286 286 286 286 286 286
285 285 285 285 285 285 285 285 284 284 284 284 284 284 283 283 283 283 283 283 282 282 282 282 282 282 282 282 281 281 282 283 283 283 283 283 283 283 283 283 283 283 283 282 282 281 280 282 283 284 284 283 283 283 283 283 283 283 283 283 283 283 283 283 283 283 283 283 283 283 283 283 283 283 283 283 284 284 284 285 285 285 285 285 285 285
285 285 285 285 285 284 284 284 284 284 283 283 283 283 283 282 282 282 282 282 281 281 281 281 281 281 282 281 282 282 282 282 282 282 282 283 283 283 283 283 283 283 283 282 282 282 281 282 283 283 283 283 282 282 282 282 283 283 283 283 283 283 283 283 283 283 283 283 283 282 282 282 282 282 282 283 283 283 284 284 285 285 285 285 285 285
285 285 284 284 284 284 283 283 283 283 282 282 282 282 282 282 282 282 282 281 281 281 281 281 281 281 281 281 281 281 281 281 281 282 282 282 283 283 283 283 283 283 282 282 282 282 282 282 282 282 282 282 282 282 282 282 282 282 283 283 283 283 283 283 283 282 282 282 282 282 282 282 282 282 282 282 283 283 283 284 284 285 285 285 285 285
284 284 284 283 283 283 282 282 282 282 282 282 282 282 282 282 282 282 282 281 281 281 281 281 281 281 281 280 280 280 281 281 281 281 282 282 282 283 282 282 282 282 282 282 282 282 282 282 282 282 281 281 281 281 281 282 282 282 282 282 282 282 282 282 282 282 282 282 282 282 282 282 282 282 282 282 282 283 283 284 284 285 285 285 285 285
283 283 283 283 282 282 282 281 281 281 281 282 282 282 282 282 282 282 281 281 281 281 281 281 281 281 281 281 280 280 280 281 281 281 282 282 282 282 282 282 282 282 282 282 281 281 281 281 281 281 281 281 281 281 281 281 281 282 282 282 282 282 282 282 282 282 282 282 282 282 282 282 282 282 282 282 282 282 283 283 284 284 284 284 285 285
283 283 282 282 282 282 281 281 281 281 281 282 282 282 282 282 281 281 281 281 281 281 281 281 281 281 281 281 281 281 280 280 281 281 281 281 281 281 281 281 281 281 281 281 281 281 281 281 281 280 280 280 280 281 281 281 281 281 281 282 282 282 282 282 282 281 281 281 282 282 282 282 282 282 282 282 282 282 282 283 283 283 283 284 284 284
283 282 282 282 282 282 281 281 281 281 281 281 281 281 281 281 281 281 281 281 281 281 281 281 281 281 281 281 281 281 281 280 280 281 281 281 281 281 281 281 281 281 281 281 281 281 281 280 280 280 280 280 280 280 280 280 280 281 281 281 281 282 282 282 281 281 281 281 282 282 282 282 282 282 282 282 282 282 283 283 283 283 283 283 283 283
282 282 282 282 282 282 281 281 281 281 281 281 281 281 281 281 281 281 281 281 281 281 281 281 281 281 281 281 280 280 280 280 280 280 281 281 281 281 281 281 281 281 281 281 281 280 280 280 280 280 279 280 280 280 280 280 280 280 280 281 281 282 282 282 281 281 281 281 281 282 282 282 282 282 282 282 282 282 283 283 283 283 283 283 283 283
283 283 282 282 282 282 282 281 281 281 281 281 281 281 281 281 281 281 281 281 281 280 280 280 280 280 280 280 280 280 280 280 280 280 280 280 280 280 280 280 280 280 280 280 280 280 280 280 279 279 279 279 279 279 279 280 280 280 280 280 280 281 282 282 281 281 281 281 281 281 281 282 282 282 282 282 282 282 282 282 283 283 283 283 283 283
283 283 283 283 282 282 282 282 281 281 281 281 281 281 281 281 281 281 281 280 280 280 279 279 279 280 280 280 280 280 280 280 280 280 280 280 280 280 280 280 280 280 280 280 280 280 279 279 279 279 279 279 279 279 279 279 279 279 279 280 280 280 281 281 282 282 281 281 281 281 281 281 282 282 282 282 282 282 282 282 282 282 282 282 282 282
283 283 283 283 283 282 282 282 281 281 281 281 281 281 281 281 281 280 280 280 279 279 279 279 279 279 279 280 280 280 280 280 280 280 280 280 280 280 280 280 280 280 279 279 279 279 279 279 279 279 279 279 279 279 279 279 279 279 279 279 279 279 280 281 282 282 281 281 281 281 281 281 281 282 282 282 282 282 282 282 282 282 282 282 282 282
283 283 283 283 283 283 282 282 282 281 281 281 281 281 281 281 280 280 280 279 279 279 279 279 279 279 280 280 280 280 280 280 280 280 280 280 280 280 280 280 280 280 280 280 279 279 279 279 279 279 279 279 279 279 279 279 279 279 279 279 279 279 279 281 281 282 281 281 281 281 282 281 281 282 282 282 282 282 282 282 282 282 282 282 282 282
283 283 283 283 283 283 282 282 282 282 281 281 281 281 281 281 280 280 279 279 279 279 279 279 279 280 280 280 280 280 280 280 280 280 280 280 280 280 280 280 280 280 280 280 280 279 279 279 279 279 279 279 279 279 279 279 279 279 279 279 279 279 279 280 280 281 281 281 282 282 282 282 282 282 282 282 282 282 282 282 282 282 282 282 282 282
283 283 283 283 283 283 283 283 282 282 282 282 282 281 281 281 280 280 279 279 279 279 279 279 279 279 279 279 280 280 280 280 280 280 280 280 280 280 280 280 280 280 280 280 280 280 279 279 279 279 279 279 278 278 279 279 279 279 279 279 279 279 279 280 280 280 281 281 281 282 282 281 282 282 282 282 282 282 282 282 282 282 282 282 282 282
284 283 283 283 283 283 283 283 282 282 282 282 282 282 281 281 280 280 279 279 279 279 279 279 279 279 279 279 280 280 280 280 280 280 280 280 280 280 280 280 280 281 281 281 280 280 280 280 279 279 279 279 278 278 279 279 279 279 279 279 279 279 279 280 280 280 280 281 281 282 282 281 281 282 282 282 282 282 282 282 282 282 282 282 282 282
284 284 284 283 283 283 283 283 282 282 282 282 282 282 282 281 280 280 279 279 279 279 279 279 279 279 279 279 279 280 280 280 280 280 280 280 280 280 280 280 280 280 281 281 281 280 280 280 280 279 279 279 279 279 279 279 279 279 279 279 279 279 279 280 280 281 281 281 281 281 281 281 281 282 282 282 282 282 282 282 282 282 282 282 282 282
284 284 284 284 283 283 283 283 282 282 282 282 282 282 282 281 280 280 279 279 279 279 279 279 279 279 279 280 280 280 280 280 280 280 279 279 279 279 280 280 280 280 280 280 280 280 280 280 280 279 279 279 279 279 279 279 279 279 279 279 279 279 279 280 280 281 281 281 281 281 281 281 281 282 282 282 282 282 282 282 282 282 282 282 282 282
284 284 284 284 283 283 283 283 282 282 282 282 282 282 282 281 281 280 280 279 279 279 279 279 279 279 279 279 280 280 280 279 279 279 279 279 279 279 280 280 280 280 280 280 280 280 280 280 280 279 279 279 279 279 279 279 279 279 279 279 279 279 279 280 281 281 281 282 282 282 282 282 282 282 281 281 281 282 282 282 282 282 282 282 282 282
284 284 284 284 283 283 283 283 282 282 282 282 282 282 282 281 281 280 280 279 279 279 279 279 279 279 279 279 279 280 279 279 279 279 279 279 279 279 279 280 280 280 280 280 280 280 280 280 280 280 279 279 279 279 279 279 279 279 279 279 279 279 280 280 281 281 282 282 282 282 282 282 282 282 282 282 282 282 282 282 282 282 282 282 282 282
285 284 284 284 284 283 283 283 282 282 282 282 282 282 282 281 281 280 280 279 279 279 279 279 279 279 279 279 279 279 279 279 279 279 279 279 279 279 279 279 280 280 280 280 280 280 280 280 280 280 280 280 280 280 280 280 280 279 280 280 280 280 280 280 281 281 282 282 282 282 282 282 282 282 282 282 282 282 282 282 282 282 282 282 282 282
Wind_Speed
12 11 9 8 7 7 5 4 4 4 3 3 4 5 6 6 7 7 7 6 5 4 4 5 6 7 7 6 6 5 5 4 3 2 2 2 2 2 2 1 1 1 2 3 3 4 4 4 4 4 3 3 3 3 3 3 3 3 3 3 4 4 4 4 3 3 3 2 2 2 2 2 2 3 5 5 4 3 2 1 1 2 3 3 3 3
11 10 9 8 8 7 6 5 4 3 2 2 3 5 7 8 7 7 6 6 5 4 4 4 4 5 4 4 3 3 3 2 2 2 2 2 2 2 2 2 2 3 3 3 4 4 4 4 4 3 3 2 2 2 2 1 1 1 1 1 2 2 2 2 3 2 2 2 1 1 1 1 1 2 3 4 4 3 3 2 2 3 3 3 3 3
13 12 11 10 9 8 7 6 5 5 4 4 4 5 7 8 7 7 6 7 6 5 4 4 4 3 3 2 2 1 1 2 2 3 3 3 3 3 3 3 3 4 4 4 4 4 4 3 3 2 2 1 1 1 1 1 1 1 1 1 1 1 1 1 1 1 1 1 1 1 1 1 1 2 3 3 3 3 3 3 3 3 3 3 3 3
15 14 13 12 10 9 8 7 7 7 6 5 5 6 7 7 8 8 8 8 7 6 5 5 4 3 3 2 1 0 1 2 3 3 3 3 3 3 3 4 4 4 4 4 4 4 3 2 2 1 0 0 1 2 2 3 3 3 3 3 3 3 3 3 3 3 3 3 3 2 2 2 2 2 2 3 3 3 4 4 4 4 4 4 4 4
15 14 13 12 11 10 9 7 7 7 6 5 6 6 6 6 6 7 8 8 8 7 6 5 4 3 2 2 1 1 2 2 3 4 4 4 4 4 4 4 4 4 4 4 3 3 2 2 2 2 2 2 3 4 4 5 5 5 5 6 6 6 6 5 5 5 5 4 4 4 4 3 3 3 3 3 4 4 4 4 4 4 4 4 5 5
14 13 12 11 10 10 9 7 6 6 7 7 7 7 6 6 6 6 7 7 7 7 7 6 4 3 2 2 1 1 2 2 3 3 3 4 4 4 4 4 4 4 4 3 3 3 3 3 3 3 4 4 4 5 5 6 6 6 6 7 7 7 8 8 7 7 7 6 6 6 5 5 5 4 4 4 5 5 5 5 5 5 5 5 5 5
13 12 11 9 8 7 7 7 7 8 8 7 6 6 6 6 6 7 7 7 7 7 6 6 5 4 3 3 2 2 1 1 1 1 2 2 3 3 3 3 3 3 3 3 3 3 3 4 4 4 5 5 5 6 6 6 6 6 7 7 8 9 9 9 9 9 8 8 7 7 7 6 6 6 5 5 5 6 6 5 5 5 5 5 6 6
13 12 10 9 7 6 6 7 9 9 8 6 5 4 4 5 6 7 8 8 7 6 6 6 6 5 4 3 3 2 1 1 1 1 1 1 1 1 2 2 2 3 3 3 3 3 4 4 5 5 6 6 6 6 6 6 6 7 7 8 9 10 10 10 10 9 9 8 8 7 7 7 7 7 6 6 6 6 6 6 6 6 6 6 6 6
15 13 11 9 8 8 8 9 9 9 8 6 5 5 5 5 6 6 7 7 6 6 6 6 6 6 5 4 3 2 2 2 2 2 2 2 2 2 3 3 3 4 4 4 4 4 4 4 5 5 6 6 6 6 6 6 7 7 8 9 10 10 10 10 10 9 9 8 8 8 7 7 7 7 7 7 7 7 7 7 7 7 7 7 7 7
14 13 12 9 8 8 9 9 10 9 9 7 6 6 6 7 7 7 7 7 7 7 7 7 7 6 5 5 4 4 3 3 3 3 3 3 3 4 4 5 5 5 5 5 5 5 4 4 5 5 5 6 6 6 6 6 7 8 9 9 10 10 10 9 9 8 8 8 8 7 7 7 7 7 7 7 7 7 7 7 7 7 7 7 7 8
13 12 11 10 8 8 8 9 10 10 9 7 6 6 6 7 8 9 9 9 8 8 8 8 7 6 6 5 6 5 5 5 4 4 4 4 5 5 5 5 6 6 6 6 6 6 6 5 5 5 5 5 5 5 5 6 7 8 9 9 9 9 9 8 7 7 6 6 6 6 6 6 7 7 7 7 7 7 7 7 8 8 8 8 8 8
13 11 10 9 9 9 8 9 9 10 9 8 6 5 6 7 8 8 9 10 9 8 8 8 8 7 7 6 6 7 6 6 5 5 5 5 5 5 5 5 6 6 7 7 7 8 8 8 8 8 8 7 7 7 7 8 8 9 9 9 9 9 8 7 6 5 5 5 5 5 5 5 5 6 6 7 7 7 7 8 8 8 8 8 8 8
13 11 10 10 10 9 9 9 9 10 9 8 6 5 6 6 7 8 8 8 8 7 7 7 7 7 7 7 7 7 7 6 6 5 5 5 5 5 6 6 6 7 7 8 8 9 9 9 9 10 10 10 9 9 9 9 9 9 9 9 9 9 8 7 6 5 5 5 4 4 4 4 4 5 5 5 6 6 7 7 7 8 8 8 8 8
12 12 11 10 9 9 10 10 9 8 8 8 7 7 7 7 7 8 7 8 7 7 6 6 5 6 6 7 6 6 6 6 6 5 5 5 5 5 6 7 8 8 8 9 9 9 9 9 9 10 10 9 9 9 9 9 9 9 9 9 9 8 7 6 5 5 5 5 5 4 4 4 4 4 4 4 5 5 6 6 7 7 8 8 8 8
12 12 10 10 9 9 9 10 9 8 8 8 8 8 7 7 7 7 6 6 6 6 6 6 6 6 6 6 6 5 5 5 5 5 5 5 5 6 7 7 8 9 9 9 9 9 9 9 9 9 9 8 7 6 7 7 8 8 8 8 8 7 6 5 5 5 5 5 5 4 4 4 4 4 4 4 5 5 5 5 6 6 7 7 7 8
13 12 10 10 10 9 9 9 9 8 8 8 8 7 7 6 6 6 6 6 6 6 6 5 5 5 5 6 5 4 4 4 5 5 6 6 6 6 7 7 7 7 8 8 8 8 7 8 8 8 7 6 5 4 5 6 7 8 8 8 8 7 6 5 5 5 5 5 5 4 4 4 5 5 5 5 5 5 5 5 6 6 6 7 7 7
12 11 11 11 10 9 9 9 9 8 9 8 8 7 7 6 7 7 7 7 6 6 6 5 4 3 3 4 4 3 3 3 5 6 8 8 8 7 7 7 7 6 6 6 6 6 7 7 7 7 6 5 4 4 5 6 6 7 7 8 8 8 7 6 6 6 6 6 6 5 5 5 5 5 6 6 6 6 6 6 6 6 6 6 7 7
11 10 10 10 10 10 10 9 9 9 8 8 8 7 7 7 7 7 6 6 6 5 5 4 4 3 2 2 2 3 3 3 5 8 10 11 10 8 7 6 6 6 5 5 5 6 6 7 7 6 5 4 4 4 5 6 6 7 7 8 8 9 9 8 7 6 6 6 6 6 6 6 6 6 6 6 6 7 7 7 7 7 7 7 7 7
10 10 9 10 10 11 11 10 9 9 8 8 8 8 7 7 6 6 5 5 5 4 4 4 4 4 4 3 3 3 4 5 7 9 11 12 11 8 6 5 5 5 5 5 5 6 7 7 7 6 6 5 5 5 5 6 6 7 7 8 9 9 10 9 8 7 6 6 6 7 7 7 7 7 7 7 7 7 7 8 8 7 7 7 7 7
10 9 8 9 10 11 11 10 10 9 9 9 8 8 8 7 6 5 5 5 5 4 4 4 4 4 5 4 4 5 6 7 9 10 10 11 10 7 5 4 4 5 5 5 6 6 7 7 7 7 7 6 6 5 5 6 6 7 8 8 9 10 10 9 8 6 6 5 5 6 6 7 7 8 8 8 8 8 8 8 8 8 8 8 8 8
10 9 8 8 9 10 11 11 10 9 9 9 9 9 8 8 7 7 7 6 6 5 5 5 4 5 6 7 7 7 7 8 9 9 8 8 8 6 4 4 5 5 5 6 6 7 7 8 8 8 8 8 7 6 6 6 6 7 7 8 9 9 9 8 6 5 4 4 5 6 6 7 7 7 7 8 8 8 8 9 9 9 9 9 9 9
9 9 8 8 8 9 10 10 10 9 9 9 9 9 9 8 8 8 8 7 6 6 5 5 5 7 8 9 8 7 6 6 7 7 6 5 6 6 4 5 6 6 6 6 7 7 8 8 8 9 9 9 8 7 6 5 5 6 7 8 8 8 7 6 4 4 4 4 5 6 6 6 6 6 7 7 7 8 8 8 9 9 9 10 10 9
8 8 8 7 7 7 8 9 9 9 9 8 8 8 8 8 8 8 7 7 6 6 6 6 7 8 9 8 7 4 3 4 5 6 5 4 5 6 5 6 7 7 7 7 7 8 8 9 9 9 9 9 8 6 4 4 4 5 6 6 7 7 6 5 4 3 4 5 5 6 6 6 6 7 7 7 7 7 7 8 9 9 9 10 10 10
7 7 7 6 6 6 7 7 8 8 8 8 8 7 7 7 7 7 7 7 7 6 6 6 7 7 6 6 4 3 2 2 3 4 4 4 5 6 7 7 7 7 8 7 7 8 9 9 9 9 9 8 7 5 3 3 3 4 5 6 6 6 5 5 4 4 4 5 5 6 6 7 7 7 7 8 7 7 7 8 8 8 9 9 10 10
6 6 5 5 5 5 5 6 6 7 7 7 7 7 7 7 7 7 7 7 6 5 5 5 5 6 5 4 4 3 2 2 3 4 5 4 4 6 7 7 7 7 8 8 9 10 10 10 9 7 6 6 5 4 3 1 1 3 5 6 6 6 5 5 5 5 5 5 6 6 7 7 8 8 8 8 8 8 8 8 8 8 8 9 9 10
4 4 4 4 4 4 4 5 5 6 6 6 6 6 6 6 6 6 6 5 4 4 4 5 6 6 6 6 5 4 3 3 4 4 5 4 4 5 6 7 7 8 8 9 11 12 12 10 7 4 3 3 4 4 2 0 2 4 5 6 6 7 6 6 6 6 6 6 7 7 8 8 8 8 9 9 9 9 9 9 9 9 9 9 9 10
4 3 3 3 3 3 3 3 4 4 5 5 5 5 5 5 5 5 5 5 4 4 5 5 5 5 6 5 5 4 5 5 6 6 6 6 5 4 5 6 7 8 9 11 12 13 11 8 4 0 2 3 3 3 1 1 2 4 5 6 6 7 7 7 7 7 7 7 7 8 8 8 8 9 9 9 9 9 10 10 10 10 10 10 10 10
5 5 5 4 4 4 4 4 4 4 4 4 4 4 4 5 5 6 6 6 6 6 6 6 6 5 4 4 5 7 8 8 8 7 7 6 5 4 5 6 7 8 9 11 12 11 7 3 1 3 4 4 3 2 0 1 3 4 5 6 6 6 7 7 7 7 7 7 7 7 7 8 8 9 9 9 9 9 10 10 10 10 10 11 11 12
6 6 6 6 5 5 6 6 6 6 6 5 5 5 5 6 7 7 7 7 7 7 7 8 8 7 6 7 8 10 10 9 8 7 6 6 5 5 5 6 6 7 8 9 9 7 3 1 4 5 5 4 3 2 1 2 4 6 6 6 6 6 7 7 7 7 7 7 7 7 7 8 9 9 9 9 9 9 9 10 10 10 11 11 12 13
5 5 5 5 6 6 6 7 7 7 7 7 6 6 7 8 8 8 8 9 9 9 9 9 9 9 8 7 7 7 7 5 3 3 4 4 4 4 5 5 6 7 7 6 5 4 2 2 5 5 5 4 4 3 3 4 6 7 7 7 7 6 7 7 7 7 7 7 7 8 8 9 9 9 10 9 9 9 9 9 10 10 11 12 13 14
4 4 4 4 5 5 5 6 6 6 6 6 7 7 8 9 10 10 10 11 11 10 10 10 10 10 8 5 2 2 4 1 1 1 2 3 4 5 5 5 6 6 7 5 4 3 2 0 3 5 5 4 3 4 6 7 8 8 7 6 6 6 6 6 7 7 8 8 9 9 10 10 10 10 10 9 9 9 9 9 9 10 11 12 13 14
4 4 4 5 5 5 6 6 6 7 7 7 8 8 9 9 10 10 10 11 11 11 11 11 11 11 10 8 6 5 5 2 2 3 4 4 4 6 7 6 5 6 7 5 3 2 1 2 2 4 5 6 8 9 10 10 9 7 6 6 5 5 6 6 7 8 9 10 11 11 12 12 12 11 10 9 9 9 9 9 9 9 10 11 12 13
6 6 6 6 6 7 7 8 8 9 9 9 9 9 9 9 9 9 9 9 9 9 10 10 11 11 12 12 12 12 11 9 8 8 8 6 5 6 6 6 6 6 6 6 5 4 4 4 5 6 9 11 13 13 13 10 8 6 5 5 6 6 7 8 8 9 10 11 12 13 14 14 13 11 10 9 8 8 8 8 8 8 9 10 11 13
7 7 7 8 8 9 9 10 10 10 11 10 10 9 9 8 8 8 8 8 8 8 8 9 10 11 12 13 13 14 15 12 11 10 9 7 6 5 6 6 6 6 6 6 5 5 5 6 7 8 10 12 14 14 13 10 8 6 6 7 7 8 9 10 10 11 12 13 14 14 14 13 12 10 9 8 7 7 6 7 7 7 8 9 10 11
8 8 8 9 9 9 9 10 10 10 10 10 9 8 8 8 8 8 8 8 8 8 8 9 9 10 11 12 13 14 14 11 9 9 9 8 7 7 7 7 7 6 6 5 5 4 4 6 8 8 9 11 13 13 12 10 8 7 8 8 10 11 12 13 14 14 15 15 14 14 12 11 9 8 7 7 6 6 6 7 8 8 8 8 9 10
7 8 8 8 8 8 8 7 7 7 7 7 7 7 7 8 8 9 9 9 9 10 10 10 9 9 10 11 12 13 13 10 9 10 10 10 9 8 7 6 6 6 6 6 6 6 6 7 9 10 11 11 11 10 10 9 9 10 10 11 12 13 13 13 14 14 14 13 11 10 9 8 7 6 6 6 6 7 7 8 8 8 8 8 8 9
7 7 7 6 6 6 6 6 6 6 6 6 6 7 7 8 9 9 9 10 10 10 11 11 11 11 11 11 11 11 11 10 11 12 13 12 11 10 8 8 8 8 8 8 8 8 8 9 11 12 12 11 9 7 8 11 13 14 15 15 14 13 12 11 10 10 9 9 8 7 6 6 6 6 6 6 6 6 7 7 7 7 8 8 8 9
7 7 6 6 6 6 6 6 6 6 6 6 7 7 8 9 9 9 10 10 11 11 12 12 12 12 12 12 12 11 10 11 12 13 14 14 14 13 12 11 11 11 11 11 11 11 11 10 10 10 10 11 11 11 13 14 15 16 17 17 15 13 11 8 7 7 7 7 6 6 5 5 6 6 6 5 5 6 6 6 6 6 7 7 8 9
7 7 6 6 5 6 6 6 6 6 6 7 7 8 9 9 10 10 11 11 11 12 13 13 13 13 14 13 13 13 12 12 13 14 15 16 16 16 16 15 15 15 15 15 14 14 13 13 12 11 11 12 13 14 14 14 14 15 16 17 17 14 11 9 7 6 6 6 6 6 5 5 5 6 6 6 6 6 7 7 6 6 7 8 8 9
7 7 6 6 5 5 6 6 7 7 7 8 9 10 10 10 11 11 12 12 13 13 14 14 14 15 15 15 15 15 14 14 14 14 15 16 17 17 18 18 18 18 18 18 17 17 16 15 15 15 15 13 13 14 14 14 14 14 15 15 15 14 13 10 8 6 5 5 6 6 6 6 6 6 7 7 7 7 8 8 8 8 8 9 10 10
8 8 7 6 5 5 6 7 7 8 9 9 10 10 11 11 11 12 13 13 14 14 14 14 14 15 15 15 15 15 14 14 13 13 13 14 14 16 17 18 18 18 18 18 18 18 17 17 17 17 17 16 15 15 15 14 14 13 13 13 15 17 16 12 8 5 5 5 6 6 7 7 7 7 7 7 7 7 7 8 9 9 9 10 10 11
9 9 8 7 6 6 7 8 9 9 10 11 11 11 11 12 12 13 14 14 14 13 12 12 12 13 13 13 13 13 13 12 12 11 11 11 12 12 13 14 15 15 15 16 16 17 17 17 17 16 16 15 14 14 14 15 14 13 13 14 15 16 15 10 6 5 7 7 7 7 7 8 8 8 8 8 7 7 7 7 8 9 9 10 10 11
11 10 9 9 8 8 8 9 10 11 11 12 12 12 12 13 13 14 14 14 13 12 11 10 10 11 12 13 13 12 11 11 10 10 10 10 10 11 11 11 12 12 13 14 15 16 16 16 16 16 16 15 14 13 14 14 14 13 13 13 13 13 11 10 9 8 9 9 8 7 7 8 9 9 9 9 9 8 8 8 8 9 9 10 10 11
12 11 11 10 10 10 10 11 12 12 13 13 13 13 13 13 13 13 13 13 12 11 10 10 10 11 13 14 14 13 12 11 10 10 10 10 10 10 10 10 10 11 12 13 14 15 15 15 15 15 14 13 13 14 14 14 14 14 14 13 12 12 12 13 14 14 13 11 9 8 8 8 9 10 10 10 10 9 9 9 9 9 9 9 10 10
13 13 13 12 12 12 13 13 13 13 14 14 14 14 13 13 12 12 12 12 12 11 11 10 11 11 12 12 13 13 13 13 12 11 10 10 9 9 9 10 10 10 11 12 13 14 14 14 14 13 12 12 12 14 14 14 15 15 14 13 13 14 15 16 16 16 15 13 11 9 8 8 10 11 12 12 11 11 10 11 11 11 11 10 10 11
15 15 15 14 14 14 14 14 14 14 14 15 15 14 13 12 11 11 11 11 11 11 11 11 11 12 12 12 12 12 12 13 13 13 12 11 10 9 9 9 10 10 10 10 11 11 12 13 13 12 11 11 13 14 15 15 15 15 15 14 14 14 16 17 16 16 15 13 12 9 8 8 10 11 13 13 13 13 12 12 12 13 13 12 12 12
16 16 16 16 16 16 15 15 14 14 15 15 15 14 13 12 11 11 10 10 11 11 12 12 13 13 14 14 14 13 13 14 15 16 15 13 11 9 8 9 9 8 8 9 9 10 11 11 11 11 12 12 13 14 14 14 14 15 15 15 15 15 16 17 17 15 13 13 11 10 8 9 10 12 13 14 15 15 15 15 14 14 14 14 14 14
17 17 17 17 17 17 16 16 15 15 16 16 16 15 14 13 12 11 11 11 11 11 12 13 13 14 15 15 16 15 15 16 16 16 16 15 12 9 8 8 8 9 9 9 10 11 12 12 12 13 14 14 14 14 15 14 14 14 15 15 14 15 16 18 17 14 13 12 11 9 9 10 11 12 13 15 16 18 18 17 16 16 15 15 15 15
18 18 18 18 18 18 17 17 16 16 17 17 16 16 15 14 13 12 12 11 11 11 12 13 14 14 15 15 16 16 15 15 15 15 15 14 13 10 8 8 8 9 10 11 12 12 13 14 15 15 16 16 17 17 17 16 15 14 14 14 14 15 16 17 16 15 13 12 11 9 9 9 10 11 13 15 17 19 19 19 18 16 15 14 14 14
19 20 19 19 19 18 18 18 17 17 17 17 17 17 16 15 14 13 13 12 12 13 13 14 14 15 15 15 15 15 15 15 14 14 14 14 12 10 9 8 9 9 10 11 12 12 13 14 15 16 17 17 18 18 18 17 16 15 15 15 15 15 16 17 17 15 14 13 11 10 9 9 9 10 12 14 17 18 19 19 18 16 15 14 14 14
20 20 20 20 19 19 18 18 18 18 18 18 18 17 17 16 15 14 14 14 14 14 15 15 15 16 16 16 16 15 15 15 14 14 14 13 12 11 9 9 9 9 9 9 9 9 9 9 10 12 15 15 16 16 18 18 17 16 15 15 16 16 17 18 17 16 15 15 14 12 11 10 10 11 12 14 15 16 17 18 17 16 15 14 15 15
Wind_Direction
177 174 176 183 185 184 189 221 252 263 264 249 207 185 172 153 141 137 137 143 152 169 198 216 225 231 238 247 259 268 271 267 257 235 212 198 195 193 194 189 146 108 100 96 98 104 109 110 111 112 113 112 111 106 100 91 84 80 80 77 65 56 49 46 44 40 38 38 38 35 26 10 309 271 266 277 290 301 304 320 289 277 294 313 334 352
167 164 164 175 183 185 185 201 220 228 217 199 174 157 147 144 146 149 151 153 155 161 183 208 224 232 238 249 261 268 266 251 225 201 188 185 183 180 172 152 132 122 119 116 117 119 122 122 122 121 116 106 99 94 86 77 66 64 78 77 62 48 41 34 31 29 23 18 16 21 15 353 302 269 262 263 268 278 296 299 283 270 272 280 299 324
163 162 165 174 184 191 191 197 207 214 210 201 192 177 162 161 165 169 169 166 163 166 179 200 219 236 249 262 272 270 242 207 192 181 176 170 167 160 147 135 130 128 129 128 128 131 135 137 136 130 116 98 75 49 17 357 341 328 312 303 306 319 325 331 335 331 315 315 295 270 259 275 276 267 260 258 259 267 290 294 286 280 281 283 291 301
165 165 169 175 184 192 200 207 212 216 218 210 200 189 177 174 177 180 179 177 175 178 188 205 221 236 250 264 276 272 161 167 170 169 165 158 149 142 134 131 132 134 136 136 139 144 151 155 160 165 173 303 319 321 322 319 315 311 304 297 291 288 286 285 286 286 284 283 272 261 255 257 264 270 268 261 258 263 274 283 283 282 286 290 295 296
168 169 171 177 182 189 203 215 218 210 195 176 163 160 161 164 172 180 183 186 186 187 192 204 216 229 243 254 257 127 130 140 146 150 152 149 144 138 135 134 137 142 146 151 158 167 181 199 222 247 272 289 301 307 311 312 312 310 306 301 295 291 286 283 282 279 277 273 269 264 259 259 262 268 273 264 258 258 263 270 274 276 282 287 292 294
169 171 175 181 186 194 205 211 199 174 152 137 130 128 129 135 148 162 172 180 182 184 185 192 203 214 223 227 207 160 139 136 136 139 143 147 148 147 147 148 152 158 166 179 193 208 227 244 260 273 284 294 300 305 307 309 310 309 307 303 299 296 293 292 289 286 281 275 270 265 260 259 260 263 267 265 261 258 259 265 268 271 277 283 288 291
166 171 177 184 192 199 202 194 174 156 143 137 130 124 121 126 133 141 148 155 162 168 174 183 193 202 210 212 205 189 164 151 145 143 144 152 156 160 165 169 177 187 201 214 229 242 257 269 279 288 293 297 300 302 303 304 305 305 303 300 298 298 298 298 297 293 289 281 274 268 262 259 257 258 261 264 264 262 260 263 265 268 273 280 285 290
163 170 178 182 182 181 180 173 163 156 154 158 162 155 143 138 138 141 145 149 155 162 173 184 194 200 205 210 212 213 219 257 283 286 278 255 225 210 209 215 224 232 238 247 257 267 278 287 292 296 299 300 301 301 301 301 299 297 295 294 295 297 300 300 299 296 292 286 279 272 266 261 258 257 259 263 265 265 263 263 264 267 271 275 280 284
164 167 173 173 168 163 162 164 163 161 164 173 183 190 187 172 160 154 154 158 164 172 180 188 193 198 205 214 223 236 259 281 286 285 281 279 277 274 273 275 276 274 270 271 274 279 288 294 298 302 304 304 303 302 299 296 292 289 289 291 294 298 301 301 299 295 290 284 279 274 269 264 260 258 258 260 263 265 266 266 266 268 270 273 278 282
168 166 167 163 158 154 155 161 165 167 168 175 185 191 191 188 182 178 178 182 184 187 190 192 193 197 208 222 235 250 264 274 275 270 263 262 267 272 278 283 285 285 281 277 276 278 284 291 298 304 310 310 307 303 298 291 286 285 288 293 298 303 305 305 303 298 292 285 279 274 269 265 262 259 258 259 261 264 266 267 268 269 270 272 277 280
163 163 161 159 157 155 156 159 164 169 171 177 182 185 186 187 188 189 193 196 198 199 199 200 202 208 220 236 250 261 270 275 275 270 262 259 259 263 269 276 281 283 281 278 274 274 277 283 289 295 299 301 299 294 290 284 283 286 291 298 304 309 313 315 314 310 304 297 289 283 276 270 265 261 259 259 259 261 263 264 266 267 268 271 274 276
157 158 158 159 160 162 162 162 165 170 175 178 178 175 177 183 187 189 191 195 198 201 206 210 216 224 233 245 257 266 273 276 276 272 269 264 261 260 262 266 272 276 277 277 277 279 281 286 290 292 291 288 285 282 281 280 282 287 293 301 308 312 316 320 320 318 314 309 303 298 293 287 280 274 269 265 262 261 262 263 265 265 265 268 271 273
156 157 158 159 162 165 167 168 170 173 179 182 179 172 169 176 181 181 181 185 189 196 205 215 226 235 240 246 254 262 269 272 274 274 274 270 265 262 261 262 265 270 274 277 279 283 288 293 297 298 296 291 286 282 280 280 283 289 295 302 307 311 314 316 317 316 315 312 309 305 302 299 297 293 287 281 274 270 267 267 267 266 265 267 269 271
157 158 159 161 163 168 172 173 173 175 181 185 184 180 178 179 180 178 177 179 186 197 207 217 231 242 247 248 252 258 262 265 269 272 274 275 277 276 274 271 269 269 271 273 278 284 291 298 303 304 301 296 291 287 286 287 290 295 302 307 310 312 312 312 312 312 312 310 308 304 298 295 294 294 291 288 284 281 277 274 271 268 267 268 268 269
160 161 160 163 167 171 176 179 179 179 180 182 184 185 186 186 188 188 187 186 193 204 215 225 235 244 248 249 250 251 254 259 265 271 275 280 289 295 294 287 278 272 270 272 276 284 294 302 306 307 305 301 297 296 297 300 304 309 314 317 317 316 313 310 309 308 307 305 302 297 291 289 290 290 289 287 286 285 283 281 277 274 271 269 268 267
166 167 166 168 171 175 179 183 182 180 179 180 184 187 189 191 199 204 203 204 210 218 228 238 243 245 244 245 242 238 241 256 272 282 288 290 299 309 309 304 292 280 273 273 279 288 299 306 309 311 310 308 306 304 304 305 310 315 318 321 322 321 317 311 306 304 303 298 293 288 286 285 286 286 286 286 285 284 284 281 279 276 273 271 268 267
171 172 174 174 174 176 179 181 180 179 180 181 184 189 193 199 207 215 217 223 229 237 243 245 248 246 237 226 224 227 238 267 290 297 300 302 309 317 318 313 303 289 280 279 286 296 307 311 314 315 317 318 318 312 305 305 308 313 316 320 320 320 317 312 304 300 300 297 291 286 285 283 279 279 284 285 284 282 281 280 279 276 274 271 270 267
173 175 178 178 176 176 177 178 179 181 184 185 188 194 201 209 215 221 227 234 239 243 244 241 240 243 246 222 212 227 263 289 303 307 308 308 313 320 325 316 305 295 288 290 297 306 312 314 317 320 324 327 325 318 309 309 310 313 315 316 316 315 313 310 303 298 295 293 290 287 285 282 278 277 279 281 282 281 280 279 278 277 274 271 268 263
171 176 179 179 179 179 179 180 182 185 188 191 195 198 200 208 214 220 224 231 235 236 237 236 240 247 254 248 232 241 276 293 304 308 310 310 313 321 334 323 309 299 295 298 305 311 312 314 317 322 325 327 324 317 311 311 312 313 312 311 310 310 310 307 302 295 290 287 288 290 290 289 286 284 282 279 278 279 279 278 276 275 274 272 268 263
170 172 174 176 178 179 180 184 188 191 193 197 199 199 196 199 202 203 204 211 217 225 233 235 242 252 259 260 258 263 278 291 302 308 309 308 312 323 339 332 319 311 306 306 309 311 310 311 315 319 323 324 320 314 311 311 310 309 307 306 307 309 309 306 301 295 291 291 293 295 295 294 292 290 288 283 279 277 276 276 275 274 272 270 268 264
171 170 172 175 177 179 181 186 190 194 196 199 198 196 194 194 193 194 197 200 205 213 224 230 239 251 261 264 266 272 282 291 300 306 306 303 306 318 336 333 325 319 314 311 310 308 307 308 313 317 319 317 313 307 305 305 305 302 301 304 309 312 310 306 300 298 301 304 305 302 299 297 295 292 291 289 285 281 277 276 274 273 271 269 267 264
173 171 173 175 180 184 187 189 190 193 196 199 199 198 198 198 197 198 202 205 208 214 226 238 253 264 272 274 277 280 285 289 294 298 294 290 294 304 327 327 324 319 313 311 309 307 305 306 310 313 313 309 302 294 292 294 294 294 299 308 315 317 315 309 305 305 309 308 306 303 301 299 298 296 296 294 291 288 283 280 277 273 271 268 266 265
173 172 173 175 180 185 190 191 192 194 198 202 205 209 212 213 211 212 216 220 226 236 250 262 269 273 275 277 281 286 288 285 286 285 280 272 284 298 313 318 318 315 310 310 307 303 302 303 306 309 308 301 291 279 272 278 284 291 305 319 326 328 326 322 318 316 315 311 308 306 305 303 302 300 297 295 291 287 284 281 278 275 272 269 266 264
172 173 174 176 180 186 192 195 197 201 205 210 215 221 226 228 230 233 239 242 247 254 264 271 274 276 276 273 275 284 298 287 282 277 267 262 276 292 303 308 310 310 311 311 309 306 306 308 310 310 303 292 277 258 240 251 277 302 324 336 342 344 342 337 331 324 315 310 308 308 306 304 302 299 295 293 290 284 279 275 275 275 274 270 267 264
175 178 182 188 193 198 204 209 213 217 221 224 227 230 233 235 239 243 247 248 251 259 274 284 293 299 304 302 303 311 326 315 296 281 264 263 275 286 293 299 304 308 311 313 314 314 315 316 317 312 295 275 250 221 198 209 305 331 340 344 346 346 345 342 337 328 320 314 310 308 307 305 302 299 296 294 291 286 280 273 272 273 272 269 267 264
181 183 189 198 207 214 219 226 231 235 238 239 239 239 240 241 244 244 242 241 247 265 286 296 304 308 310 309 309 312 320 318 309 291 269 267 273 280 284 292 300 307 310 312 315 318 319 321 322 312 267 235 209 188 168 121 343 336 336 334 333 331 329 328 326 322 319 315 312 309 308 306 304 301 298 295 292 288 284 279 274 271 269 268 266 264
184 185 188 191 193 198 207 220 231 239 245 247 249 248 247 247 244 239 234 240 256 275 287 292 295 300 302 297 294 296 303 305 302 291 277 269 269 274 279 289 298 306 310 312 315 319 321 324 328 264 188 183 175 164 127 25 334 321 319 319 317 316 315 314 312 310 310 309 308 307 307 306 306 304 301 297 293 289 285 281 277 273 267 266 265 263
194 196 197 193 190 191 194 199 207 216 224 228 233 241 247 250 248 246 249 259 271 279 280 278 281 286 290 290 290 292 294 294 291 284 274 264 259 264 274 287 296 304 310 314 318 322 326 333 113 141 148 152 152 148 126 311 302 302 307 310 310 309 307 306 306 306 306 307 308 308 308 308 308 307 305 301 297 292 287 283 280 275 270 265 263 261
200 204 205 203 201 200 200 200 201 202 205 208 214 225 241 252 256 259 264 274 278 277 274 274 274 274 278 287 293 295 295 292 286 276 265 254 252 260 271 284 294 303 312 318 322 327 351 109 138 140 142 148 156 175 224 273 289 298 305 306 305 303 301 302 302 302 303 304 304 304 305 307 309 309 307 304 300 296 291 286 281 277 273 267 263 261
188 193 197 199 202 204 206 206 206 205 206 209 217 226 237 248 257 264 270 275 276 274 272 273 273 272 274 287 297 298 295 296 288 267 258 250 250 259 270 280 291 301 315 326 326 328 11 131 147 151 152 161 177 205 251 285 299 304 306 303 301 299 299 299 299 297 296 295 296 299 301 304 307 308 307 303 300 296 293 289 284 279 274 270 266 264
172 177 183 194 203 210 215 219 223 225 225 226 227 230 237 245 253 260 266 270 272 273 273 272 271 269 266 268 275 292 291 4 72 309 289 268 261 265 272 278 286 296 307 324 328 320 326 210 171 171 175 189 218 255 282 298 306 308 306 304 301 300 298 296 292 289 287 288 291 296 300 303 304 304 303 301 298 294 292 290 285 280 275 272 269 268
181 185 191 201 211 222 229 237 244 250 253 253 251 249 248 251 256 260 265 268 271 272 272 271 271 268 263 253 241 241 258 270 301 302 300 289 275 271 274 274 276 283 293 303 303 285 264 299 246 212 227 253 274 287 296 305 311 311 307 303 302 299 294 288 283 281 281 283 287 293 298 302 304 302 299 297 296 294 291 289 286 281 277 274 272 270
199 202 208 215 223 229 236 242 247 252 255 258 260 260 260 261 262 264 266 268 269 270 270 269 268 266 264 258 253 251 253 261 273 282 284 282 275 269 270 269 267 271 281 286 282 269 258 273 271 267 273 282 290 299 306 312 314 310 300 294 291 288 285 282 281 280 281 284 288 292 297 301 302 300 296 293 292 292 289 288 286 283 280 279 276 274
216 220 224 230 235 239 243 245 247 249 250 252 253 256 258 261 264 267 269 270 271 272 271 269 267 265 262 260 258 257 258 262 266 269 271 269 265 262 266 268 266 266 271 274 273 267 260 257 265 278 286 293 298 304 309 313 311 300 288 282 280 280 279 281 282 283 285 287 290 293 295 297 297 295 291 286 284 285 287 288 288 286 284 282 280 280
231 235 240 244 247 249 249 248 247 245 245 245 246 248 252 257 263 268 271 274 276 277 277 276 273 269 265 260 258 259 261 261 260 260 261 261 260 263 269 269 268 267 264 263 262 263 264 265 272 281 291 297 300 303 305 307 303 293 285 281 279 280 281 284 286 287 288 289 290 291 292 292 291 289 286 282 280 283 290 293 291 288 284 281 280 279
245 249 253 256 258 257 255 250 246 243 241 242 243 246 252 257 262 267 271 274 277 279 280 280 280 277 272 268 265 264 265 263 258 256 259 261 265 269 272 270 268 266 264 260 259 264 274 280 285 289 293 295 298 299 300 298 295 291 289 289 288 288 289 290 290 290 291 292 292 291 290 289 289 290 290 288 285 285 288 288 285 282 281 279 277 277
257 262 265 266 266 263 260 255 251 249 250 250 252 254 257 260 263 266 270 274 277 279 280 281 282 281 279 277 274 273 273 266 258 257 260 263 267 271 272 270 269 268 266 263 264 269 278 285 291 292 291 288 287 290 293 294 295 295 296 299 301 302 301 300 297 295 296 296 296 294 293 295 296 298 297 295 290 284 281 277 274 273 274 274 274 275
263 268 271 270 265 262 261 261 261 262 263 263 261 260 260 261 264 267 270 273 276 278 280 281 282 282 282 281 281 280 277 268 261 259 261 264 267 270 271 270 269 269 268 267 268 272 278 283 288 290 289 286 284 285 289 294 297 300 302 306 309 313 316 316 311 304 301 299 297 297 298 300 301 300 298 294 287 282 277 272 269 270 271 271 270 269
264 270 273 270 263 259 259 264 268 268 266 262 260 259 259 261 265 268 271 274 276 278 279 279 279 279 279 279 279 279 277 272 267 264 263 264 266 268 271 271 270 270 271 271 271 271 272 273 274 277 282 286 288 289 291 294 297 300 304 308 311 314 319 320 316 309 305 302 302 302 302 302 299 296 294 289 285 283 282 278 276 276 279 280 279 275
267 273 276 273 266 260 260 264 267 266 262 259 258 259 260 263 266 269 272 275 276 277 277 277 276 275 274 273 273 273 273 272 270 267 265 264 265 266 268 270 271 272 272 273 272 271 269 267 267 268 271 276 283 287 290 290 292 297 303 307 307 309 316 318 316 312 310 309 309 309 307 304 301 298 296 293 292 290 289 287 285 283 283 284 286 286
270 276 281 283 278 269 264 264 263 261 260 260 260 262 264 267 270 273 276 277 277 276 275 273 271 270 268 267 267 268 268 269 269 268 267 266 265 265 265 267 268 270 271 272 271 271 270 267 266 267 268 271 275 280 282 283 287 291 296 297 299 304 311 313 316 318 318 315 312 309 308 307 307 308 308 306 303 298 295 292 290 288 285 284 285 288
274 280 288 292 290 282 274 267 264 262 263 264 266 268 271 275 278 281 283 283 282 280 277 275 273 272 270 266 264 263 264 266 267 268 269 270 269 268 266 265 265 266 268 269 270 269 269 267 266 266 266 269 273 276 279 281 283 286 287 289 295 302 306 307 314 322 314 311 308 307 307 309 313 315 316 314 312 308 303 299 297 294 291 288 286 285
277 284 291 294 292 286 278 271 267 266 266 267 270 273 278 283 286 288 288 287 286 284 283 282 282 282 281 278 274 270 267 267 268 271 274 277 277 275 270 266 262 262 263 265 266 267 267 266 266 265 266 267 268 271 276 280 283 284 283 285 292 296 296 298 303 309 307 306 306 306 308 311 313 313 312 310 309 308 306 305 303 300 298 294 291 287
279 284 288 288 288 284 279 273 269 267 267 269 272 276 281 286 289 289 287 285 284 283 283 285 285 285 283 283 283 283 281 278 276 277 281 285 285 282 274 267 261 257 257 259 261 263 265 265 265 266 267 266 265 266 270 276 280 281 282 283 283 279 277 286 296 303 305 306 306 306 309 311 311 308 305 303 304 306 307 308 309 308 308 305 301 297
277 279 281 282 283 282 280 277 274 272 270 271 273 277 282 287 289 287 284 282 281 280 281 283 283 281 278 278 280 284 285 285 284 285 288 291 290 284 276 267 260 255 253 255 257 260 261 261 264 270 274 271 266 264 266 270 275 278 279 280 278 276 278 284 290 296 299 304 307 309 311 310 307 304 302 302 304 307 309 310 312 314 315 316 313 310
273 275 277 279 281 282 283 283 280 276 273 273 274 278 284 288 289 287 283 280 278 279 279 279 277 274 271 273 277 279 281 283 285 289 293 296 293 285 275 267 261 256 254 256 259 262 264 265 268 272 274 271 266 264 263 265 269 273 276 278 279 279 282 284 287 291 295 300 304 308 312 308 303 301 302 304 306 308 308 310 312 314 316 318 317 316
271 273 275 278 280 283 285 285 282 278 275 274 275 279 284 288 290 288 283 279 277 277 278 276 273 270 269 270 273 275 277 280 284 289 295 299 298 289 278 271 266 264 264 266 268 269 268 271 273 272 268 264 264 264 265 265 266 268 271 275 278 280 281 283 287 292 297 300 304 308 309 305 301 300 302 305 306 306 306 308 311 313 315 315 315 315
272 274 275 278 279 281 282 283 281 278 275 275 277 280 284 288 289 286 283 279 277 275 275 274 272 270 269 270 271 273 275 278 282 288 293 299 300 296 285 277 273 272 273 274 273 271 270 271 271 268 264 260 260 263 267 266 265 266 268 272 275 277 279 282 289 296 299 301 304 307 305 302 300 301 304 305 303 302 302 305 307 309 310 311 312 312
272 273 274 276 277 278 279 281 280 278 276 276 277 280 283 286 287 284 282 279 276 273 272 271 270 270 269 270 271 272 273 276 280 284 289 294 297 297 290 281 277 276 276 275 275 276 276 277 273 268 264 261 258 259 264 265 265 266 267 268 269 271 275 281 289 296 300 302 304 304 300 297 297 299 301 299 296 295 298 300 302 304 306 308 309 309
270 272 273 274 275 276 277 279 278 277 275 275 276 278 281 284 284 283 280 277 273 270 269 269 269 269 269 269 270 271 271 273 275 279 283 287 291 292 287 281 278 277 276 276 277 279 279 279 276 271 265 261 258 257 258 261 263 265 265 264 265 267 271 279 287 295 300 302 302 301 297 293 292 292 292 290 290 291 294 295 297 299 302 304 304 304
268 270 271 272 272 274 276 277 276 275 274 274 275 276 278 279 280 279 277 273 270 267 266 267 267 268 268 269 269 270 270 271 272 274 277 281 284 284 280 276 274 271 268 268 271 273 275 276 276 273 269 262 258 256 256 256 258 261 261 262 264 267 271 277 286 293 298 299 299 298 295 291 288 286 285 284 284 287 290 292 293 295 298 300 301 300